Stations météo

Publicité
Ouessant, France (7100): Température de l'air & dewpoint: 17.02.2017 01:00:00 - 23.02.2017 01:00:00 (CET)Ouessant, France (7100): Vitesse du vent & gusts: 17.02.2017 01:00:00 - 23.02.2017 01:00:00 (CET)Ouessant, France (7100): Direction du vent: 17.02.2017 01:00:00 - 23.02.2017 01:00:00 (CET)Ouessant, France (7100): reduced air pressure: 17.02.2017 01:00:00 - 23.02.2017 01:00:00 (CET)Ouessant, France (7100): visibility: 17.02.2017 01:00:00 - 23.02.2017 01:00:00 (CET)Ouessant, France (7100): Quantités de précipitations: 17.02.2017 01:00:00 - 23.02.2017 01:00:00 (CET)
Date & Time tt [°C] td [°C] ff [km/h] ff [knt] fx [km/h] fx [knt] dd ppp [hPa] vv [km] rr [mm]
23.02.2017 01:00:00 9,7 9,4 42 23 59 32 WSW 1012,6 10 0,2
23.02.2017 00:00:00 9,9 9,6 32 17 51 28 WSW 1013,5 - 0,0
22.02.2017 23:00:00 9,8 9,3 30 16 47 25 WSW 1014,2 - 0,0
22.02.2017 22:00:00 9,8 9,0 29 16 48 26 WSW 1014,9 19 0,2
22.02.2017 21:00:00 10,0 9,1 26 14 - - WSW 1015,7 - 0,0
22.02.2017 20:00:00 10,1 8,7 31 17 45 24 WSW 1016,0 - 0,0
22.02.2017 19:00:00 10,2 9,4 27 15 41 22 WSW 1016,1 8 0,0
22.02.2017 18:00:00 10,4 9,2 29 15 51 28 WSW 1016,4 - 0,0
22.02.2017 17:00:00 10,7 9,6 33 18 53 29 WSW 1016,9 - 0,0
22.02.2017 16:00:00 10,5 10,0 33 18 49 27 W 1017,4 3,0 0,0
22.02.2017 15:00:00 11,1 9,5 30 16 50 27 W 1018,1 - 0,0
22.02.2017 14:00:00 11,1 9,7 31 17 50 27 WSW 1018,6 - 0,0
22.02.2017 13:00:00 11,0 9,9 27 14 42 23 WSW 1019,5 17 0,0
22.02.2017 12:00:00 10,7 9,6 27 15 40 21 W 1019,8 - 0,0
22.02.2017 11:00:00 10,5 9,7 26 14 42 23 W 1020,0 - 0,0
22.02.2017 10:00:00 10,5 10,2 26 14 48 26 W 1019,6 17 0,0
22.02.2017 09:00:00 10,1 9,8 27 15 43 23 W 1019,7 - 0,0
22.02.2017 08:00:00 9,9 9,6 31 17 49 26 W 1019,8 - 0,0
22.02.2017 07:00:00 9,9 9,7 29 16 44 24 WSW 1019,8 10 0,0
22.02.2017 06:00:00 10,0 9,4 31 17 51 27 WSW 1020,2 - 0,0
22.02.2017 05:00:00 10,3 9,1 36 19 51 28 W 1020,2 - 0,0
22.02.2017 04:00:00 10,6 9,0 31 17 50 27 W 1020,7 20 0,0
22.02.2017 03:00:00 10,6 9,4 27 14 43 23 W 1021,1 - 0,0
22.02.2017 02:00:00 10,7 9,5 27 15 43 23 W 1021,6 - 0,0
22.02.2017 01:00:00 10,9 9,0 31 17 48 26 W 1022,0 20 0,0
22.02.2017 00:00:00 10,8 9,1 29 16 42 23 W 1022,3 - 0,0
21.02.2017 23:00:00 10,9 9,2 28 15 40 22 W 1022,4 - 0,0
21.02.2017 22:00:00 10,8 9,7 27 15 37 20 WSW 1022,4 20 0,0
21.02.2017 21:00:00 10,7 9,9 26 14 38 20 WSW 1022,6 - 0,0
21.02.2017 20:00:00 10,7 9,8 28 15 39 21 W 1022,6 - 0,0
21.02.2017 19:00:00 10,9 9,3 26 14 36 19 W 1022,6 15 0,0
21.02.2017 18:00:00 11,1 10,2 22 12 31 17 W 1022,7 - 0,0
21.02.2017 17:00:00 11,5 10,4 21 12 39 21 WSW 1023,0 - 0,0
21.02.2017 16:00:00 11,7 10,1 28 15 40 21 WSW 1023,3 20 0,0
21.02.2017 15:00:00 12,0 10,2 24 13 40 21 W 1023,9 - 0,0
21.02.2017 14:00:00 11,9 9,6 31 17 45 24 W 1024,4 - 0,0
21.02.2017 13:00:00 11,9 10,5 29 15 37 20 W 1024,9 20 0,0
21.02.2017 12:00:00 11,7 10,8 24 13 37 20 WSW 1025,3 - 0,0
21.02.2017 11:00:00 11,2 10,3 26 14 35 19 W 1025,2 - 0,0
21.02.2017 10:00:00 11,1 10,3 22 12 32 17 W 1025,0 15 0,0
21.02.2017 09:00:00 10,5 9,9 19 11 29 15 W 1024,9 - 0,0
21.02.2017 08:00:00 10,1 9,5 23 12 29 16 W 1024,6 - 0,0
21.02.2017 07:00:00 10,2 9,7 22 12 35 19 W 1024,6 20 0,0
21.02.2017 06:00:00 10,1 10,1 21 11 29 16 W 1024,8 - 0,0
21.02.2017 05:00:00 10,3 10,3 24 13 32 17 W 1025,0 - 0,0
21.02.2017 04:00:00 10,1 10,1 22 12 32 18 W 1025,2 5 0,0
21.02.2017 03:00:00 9,7 9,7 19 11 39 21 WNW 1025,7 - 0,0
21.02.2017 02:00:00 9,5 9,5 28 15 37 20 NW 1026,2 - 0,0
21.02.2017 01:00:00 9,3 9,3 27 14 36 19 NW 1026,4 0,2 0,0
21.02.2017 00:00:00 9,6 9,6 24 13 36 20 NW 1026,3 - 0,0
20.02.2017 23:00:00 9,6 9,6 26 14 43 23 NW 1026,6 - 0,0
20.02.2017 22:00:00 9,8 9,8 29 15 40 22 NW 1026,4 6 0,0
20.02.2017 21:00:00 9,8 9,8 29 15 39 21 NNW 1026,5 - 0,0
20.02.2017 20:00:00 9,8 9,8 27 15 38 20 NW 1026,4 - 0,0
20.02.2017 19:00:00 10,2 10,2 28 15 - - NNW 1026,0 6 0,0
20.02.2017 18:00:00 10,7 10,7 25 14 - - NW 1025,5 - 0,0
20.02.2017 17:00:00 11,1 11,1 32 17 42 23 NW 1025,4 - 0,0
20.02.2017 16:00:00 11,5 11,5 26 14 38 20 NW 1025,4 0,5 0,0
20.02.2017 15:00:00 11,7 11,7 23 12 30 16 NW 1025,7 - 0,0
20.02.2017 14:00:00 11,6 11,6 21 11 26 14 WNW 1026,2 - 0,0
20.02.2017 13:00:00 11,4 11,4 16 8 40 21 NNW 1026,3 - 0,0
20.02.2017 12:00:00 10,5 10,5 24 13 36 19 NW 1026,7 - 0,0
20.02.2017 11:00:00 10,6 10,6 20 11 38 21 NW 1026,4 - 0,0
20.02.2017 10:00:00 10,4 10,4 24 13 38 21 NW 1026,1 0,1 0,0
20.02.2017 09:00:00 10,6 10,6 25 14 39 21 NW 1025,9 - 0,0
20.02.2017 08:00:00 10,6 10,6 22 12 35 19 WNW 1025,2 - 0,0
20.02.2017 07:00:00 10,8 10,8 28 15 37 20 NW 1025,0 0,1 0,2
20.02.2017 06:00:00 10,8 10,8 24 13 36 19 NW 1024,9 - 0,0
20.02.2017 05:00:00 10,7 10,7 19 10 27 14 WNW 1025,0 - 0,0
20.02.2017 04:00:00 10,5 10,5 22 12 32 17 WNW 1025,5 - 0,0
20.02.2017 03:00:00 10,4 10,4 23 12 35 19 NW 1025,7 - 0,0
20.02.2017 02:00:00 10,3 10,3 29 15 37 20 NW 1026,0 - 0,0
20.02.2017 01:00:00 10,6 10,6 26 14 37 20 NW 1025,9 - 0,0
20.02.2017 00:00:00 10,8 10,8 24 13 33 18 WNW 1026,1 - 0,0
19.02.2017 23:00:00 10,8 10,8 24 13 30 16 WNW 1026,0 - 0,0
19.02.2017 22:00:00 10,8 10,8 23 12 30 16 WNW 1026,1 0,2 0,0
19.02.2017 21:00:00 10,8 10,8 24 13 35 19 W 1026,0 - 0,0
19.02.2017 20:00:00 10,6 10,6 24 13 38 20 WSW 1025,9 - 0,0
19.02.2017 19:00:00 10,1 10,1 27 15 38 20 WSW 1025,7 0,5 0,2
19.02.2017 18:00:00 10,1 10,1 23 13 34 18 WSW 1025,8 - 0,0
19.02.2017 17:00:00 10,3 10,0 22 12 34 18 WSW 1025,9 - 0,0
19.02.2017 16:00:00 11,3 9,2 20 11 35 19 WSW 1026,2 18 0,0
19.02.2017 15:00:00 11,8 9,0 27 15 36 19 W 1026,4 - 0,0
19.02.2017 14:00:00 12,7 10,2 20 11 29 16 W 1026,8 - 0,0
19.02.2017 13:00:00 11,3 9,4 20 11 27 15 WNW 1027,8 18 0,0
19.02.2017 12:00:00 11,0 9,6 20 11 27 15 WNW 1027,8 - 0,0
19.02.2017 11:00:00 10,4 9,8 22 12 29 16 W 1027,6 - 0,0
19.02.2017 10:00:00 10,3 10,3 16 9 26 14 WNW 1027,4 3,0 0,0
19.02.2017 09:00:00 9,6 9,6 15 8 20 11 WSW 1027,1 - 0,0
19.02.2017 08:00:00 9,4 9,4 15 8 22 12 WSW 1026,4 - 0,0
19.02.2017 07:00:00 8,7 8,7 21 11 24 13 W 1026,3 12 0,0
19.02.2017 06:00:00 8,6 8,6 17 9 18 10 WSW 1025,9 - 0,0
19.02.2017 05:00:00 8,1 8,1 14 7 18 10 SW 1025,6 - 0,0
19.02.2017 04:00:00 8,2 8,2 13 7 19 10 S 1025,1 12 0,0
19.02.2017 03:00:00 7,9 7,8 10 5 15 8 WSW 1025,8 - 0,0
19.02.2017 02:00:00 7,4 7,3 16 8 17 9 W 1025,7 - 0,0
19.02.2017 01:00:00 8,0 7,7 11 6 12 6 WSW 1025,4 - 0,0
19.02.2017 00:00:00 7,8 7,4 8 5 13 7 SSE 1025,1 - 0,0
18.02.2017 23:00:00 8,0 7,6 8 4 12 6 SE 1024,9 - 0,0
18.02.2017 22:00:00 8,5 8,2 9 5 14 7 SE 1024,9 12 0,0
18.02.2017 21:00:00 8,6 8,2 10 5 13 7 SE 1024,3 - 0,0
18.02.2017 20:00:00 8,9 8,3 8 4 12 7 ESE 1024,1 - 0,0
18.02.2017 19:00:00 8,8 7,9 9 5 16 8 SE 1023,5 - 0,0
18.02.2017 18:00:00 10,7 8,3 8 4 16 9 SE 1023,0 - 0,0
18.02.2017 17:00:00 11,4 8,6 4 2 13 7 SSE 1022,7 - 0,0
18.02.2017 16:00:00 11,0 8,7 8 4 21 11 S 1022,5 - 0,0
18.02.2017 15:00:00 12,4 8,9 11 6 30 16 SSE 1022,2 - 0,0
18.02.2017 14:00:00 11,9 8,9 17 9 41 22 SSE 1022,1 - 0,0
18.02.2017 13:00:00 11,4 8,6 24 13 43 23 SSE 1022,4 18 0,0
18.02.2017 12:00:00 11,4 9,0 21 11 41 22 SSE 1022,5 - 0,0
18.02.2017 11:00:00 9,7 8,6 25 14 46 25 SSE 1022,1 - 0,0
18.02.2017 10:00:00 9,2 8,3 26 14 47 26 SSE 1022,0 8 0,0
18.02.2017 09:00:00 9,0 8,4 26 14 45 24 SSE 1021,9 - 0,0
18.02.2017 08:00:00 8,4 7,8 29 16 50 27 SE 1021,5 - 0,0
18.02.2017 07:00:00 8,7 7,8 31 17 51 28 SE 1021,3 15 0,0
18.02.2017 06:00:00 8,9 8,3 28 15 53 29 SSE 1021,5 - 0,0
18.02.2017 05:00:00 9,2 8,7 31 17 46 25 SE 1021,4 - 0,0
18.02.2017 04:00:00 9,6 9,0 28 15 49 26 SE 1021,9 15 0,0
18.02.2017 03:00:00 9,4 8,2 27 15 50 27 SE 1022,5 - 0,0
18.02.2017 02:00:00 9,3 8,1 24 13 45 24 SSE 1023,0 - 0,0
18.02.2017 01:00:00 9,4 7,2 27 15 44 24 SSE 1023,3 15 0,0
18.02.2017 00:00:00 9,5 7,1 23 12 47 25 SE 1024,0 - 0,0
17.02.2017 23:00:00 9,5 7,9 31 17 48 26 SE 1024,2 - 0,0
17.02.2017 22:00:00 9,7 8,3 24 13 45 24 SSE 1024,4 15 0,0
17.02.2017 21:00:00 9,2 9,2 21 12 44 24 SSE 1025,0 - 0,0
17.02.2017 20:00:00 8,6 8,6 22 12 46 25 SSE 1025,1 - 0,0
17.02.2017 19:00:00 8,5 8,5 24 13 49 27 SSE 1025,0 0,1 0,0
17.02.2017 18:00:00 8,5 8,5 28 15 45 24 S 1025,1 - 0,0
17.02.2017 17:00:00 8,2 8,2 38 20 56 31 S 1025,5 - 0,0
17.02.2017 16:00:00 8,3 8,3 24 13 45 24 SSE 1025,8 0,5 0,0
17.02.2017 15:00:00 7,9 7,9 29 16 51 28 S 1026,5 - 0,0
17.02.2017 14:00:00 8,3 8,3 24 13 54 29 SSE 1027,1 - 0,0
17.02.2017 13:00:00 8,6 8,6 25 14 54 29 SSE 1027,6 0,5 0,0
17.02.2017 12:00:00 9,1 9,0 25 13 49 26 SSE 1027,9 - 0,0
17.02.2017 11:00:00 9,6 9,5 25 13 46 25 SSE 1028,1 - 0,0
17.02.2017 10:00:00 9,6 9,6 21 11 41 22 SSE 1028,0 8 0,0
17.02.2017 09:00:00 9,4 9,4 16 9 33 18 SSE 1028,0 - 0,0
17.02.2017 08:00:00 9,1 9,1 15 8 31 17 SSE 1028,0 - 0,0
17.02.2017 07:00:00 9,2 9,2 23 12 31 17 S 1028,2 12 0,0
17.02.2017 06:00:00 9,2 9,2 19 11 29 16 S 1028,4 - 0,0
17.02.2017 05:00:00 9,6 9,6 15 8 25 13 S 1028,7 - 0,0
17.02.2017 04:00:00 9,6 9,6 13 7 23 12 S 1029,0 6 0,0
17.02.2017 03:00:00 9,6 9,6 16 9 22 12 S 1029,4 - 0,0
17.02.2017 02:00:00 9,4 9,4 15 8 21 12 S 1029,7 - 0,0
17.02.2017 01:00:00 9,6 9,6 10 6 22 12 S 1030,0 6 0,0

tt = Température de l'air
td = dewpoint
ff = Vitesse du vent
fx = gusts
dd = Direction du vent
ppp = reduced air pressure
vv = visibility
rr = Quantités de précipitations

stations d'obs. à proximité